Hourly Weather Kyzylsay

Today, 26 October, Monday

Time Temperature Precipitation Wind Pressure Humidity
00:00 +13°C° 0 mm 2 mps 741 mmHg 71%
01:00 +13°C° 0 mm 2 mps 741 mmHg 75%
02:00 +13°C° 0 mm 2 mps 741 mmHg 80%
03:00 +13°C° 0 mm 2 mps 741 mmHg 84%
04:00 +12°C° 0 mm 2 mps 741 mmHg 89%
05:00 +12°C° 0 mm 2 mps 741 mmHg 88%
06:00 +12°C° 0 mm 3 mps 741 mmHg 87%
07:00 +12°C° 0 mm 3 mps 742 mmHg 87%
08:00 +14°C° 0 mm 3 mps 742 mmHg 76%
09:00 +17°C° 0 mm 3 mps 742 mmHg 65%
10:00 +19°C° 0 mm 3 mps 743 mmHg 55%
11:00 +19°C° 0 mm 4 mps 743 mmHg 52%
12:00 +20°C° 0 mm 4 mps 743 mmHg 50%
13:00 +21°C° 0 mm 4 mps 743 mmHg 47%
14:00 +21°C° 0 mm 4 mps 743 mmHg 46%
15:00 +20°C° 0 mm 4 mps 742 mmHg 44%
16:00 +20°C° 0 mm 4 mps 742 mmHg 43%
17:00 +17°C° 0 mm 5 mps 742 mmHg 44%
18:00 +16°C° 0 mm 5 mps 743 mmHg 46%
19:00 +14°C° 0 mm 5 mps 743 mmHg 48%
20:00 +13°C° 0 mm 5 mps 743 mmHg 51%
21:00 +12°C° 0 mm 5 mps 743 mmHg 53%
22:00 +10°C° 0 mm 5 mps 743 mmHg 56%
23:00 +9°C° 0 mm 5 mps 743 mmHg 60%

Tomorrow, 27 October, Tuesday

Time Temperature Precipitation Wind Pressure Humidity
00:00 +8°C° 0 mm 5 mps 743 mmHg 63%
01:00 +7°C° 0 mm 5 mps 743 mmHg 67%
02:00 +7°C° 0 mm 5 mps 743 mmHg 70%
03:00 +6°C° 0 mm 5 mps 743 mmHg 73%
04:00 +6°C° 0 mm 5 mps 743 mmHg 75%
05:00 +5°C° 0 mm 5 mps 744 mmHg 77%
06:00 +5°C° 0 mm 5 mps 744 mmHg 78%
07:00 +3°C° 0 mm 5 mps 744 mmHg 79%
08:00 +5°C° 0 mm 6 mps 744 mmHg 68%
09:00 +7°C° 0 mm 6 mps 745 mmHg 56%
10:00 +9°C° 0 mm 7 mps 745 mmHg 44%
11:00 +10°C° 0 mm 6 mps 746 mmHg 41%
12:00 +11°C° 0 mm 6 mps 746 mmHg 37%
13:00 +13°C° 0 mm 6 mps 746 mmHg 33%
14:00 +13°C° 0 mm 6 mps 746 mmHg 32%
15:00 +11°C° 0 mm 6 mps 746 mmHg 31%
16:00 +11°C° 0 mm 6 mps 746 mmHg 30%
17:00 +10°C° 0 mm 6 mps 746 mmHg 33%
18:00 +8°C° 0 mm 6 mps 747 mmHg 35%
19:00 +7°C° 0 mm 5 mps 747 mmHg 37%
20:00 +6°C° 0 mm 5 mps 747 mmHg 38%
21:00 +4°C° 0 mm 6 mps 748 mmHg 38%
22:00 +3°C° 0 mm 6 mps 748 mmHg 39%
23:00 +3°C° 0 mm 5 mps 748 mmHg 38%

Day after tomorrow, 28 October, Wednesday

Time Temperature Precipitation Wind Pressure Humidity
00:00 +2°C° 0 mm 5 mps 749 mmHg 37%
01:00 +2°C° 0 mm 5 mps 749 mmHg 36%
02:00 +1°C° 0 mm 5 mps 749 mmHg 36%
03:00 +1°C° 0 mm 5 mps 749 mmHg 36%
04:00 0°C° 0 mm 4 mps 749 mmHg 36%
05:00 0°C° 0 mm 4 mps 749 mmHg 37%
06:00 -1°C° 0 mm 4 mps 750 mmHg 37%
07:00 -1°C° 0 mm 4 mps 750 mmHg 38%
08:00 +1°C° 0 mm 4 mps 751 mmHg 35%
09:00 +2°C° 0 mm 5 mps 751 mmHg 31%
10:00 +5°C° 0 mm 5 mps 751 mmHg 27%
11:00 +6°C° 0 mm 5 mps 751 mmHg 24%
12:00 +8°C° 0 mm 5 mps 751 mmHg 21%
13:00 +10°C° 0 mm 5 mps 751 mmHg 18%
14:00 +10°C° 0 mm 5 mps 751 mmHg 18%
15:00 +10°C° 0 mm 5 mps 751 mmHg 19%
16:00 +10°C° 0 mm 5 mps 751 mmHg 19%
17:00 +9°C° 0 mm 5 mps 751 mmHg 23%
18:00 +7°C° 0 mm 4 mps 751 mmHg 27%
19:00 +6°C° 0 mm 4 mps 752 mmHg 31%
20:00 +5°C° 0 mm 4 mps 752 mmHg 34%
21:00 +4°C° 0 mm 4 mps 752 mmHg 37%
22:00 +3°C° 0 mm 4 mps 752 mmHg 40%
23:00 +3°C° 0 mm 4 mps 752 mmHg 43%

29 October, Thursday

Time Temperature Precipitation Wind Pressure Humidity
00:00 +3°C° 0 mm 4 mps 752 mmHg 45%
01:00 +1°C° 0 mm 4 mps 752 mmHg 47%
02:00 +1°C° 0 mm 4 mps 752 mmHg 49%
03:00 0°C° 0 mm 4 mps 752 mmHg 50%
04:00 0°C° 0 mm 4 mps 752 mmHg 52%
05:00 0°C° 0 mm 5 mps 752 mmHg 59%
06:00 0°C° 0 mm 5 mps 752 mmHg 65%
07:00 -1°C° 0 mm 5 mps 752 mmHg 71%
08:00 +1°C° 0 mm 6 mps 753 mmHg 65%
09:00 +3°C° 0 mm 7 mps 753 mmHg 60%
10:00 +5°C° 0 mm 8 mps 753 mmHg 54%
11:00 +7°C° 0 mm 8 mps 753 mmHg 48%
12:00 +8°C° 0 mm 9 mps 753 mmHg 42%
13:00 +11°C° 0 mm 9 mps 753 mmHg 36%
14:00 +11°C° 0 mm 9 mps 752 mmHg 35%
15:00 +11°C° 0 mm 9 mps 752 mmHg 33%
16:00 +11°C° 0 mm 9 mps 752 mmHg 32%
17:00 +10°C° 0 mm 9 mps 752 mmHg 35%
18:00 +7°C° 0 mm 8 mps 752 mmHg 38%
19:00 +6°C° 0 mm 8 mps 752 mmHg 41%
20:00 +5°C° 0 mm 8 mps 752 mmHg 41%
21:00 +5°C° 0 mm 8 mps 752 mmHg 40%
22:00 +4°C° 0 mm 8 mps 752 mmHg 39%
23:00 +3°C° 0 mm 9 mps 752 mmHg 38%

30 October, Friday

Time Temperature Precipitation Wind Pressure Humidity
00:00 +2°C° 0 mm 9 mps 752 mmHg 36%
01:00 +2°C° 0 mm 9 mps 752 mmHg 35%
02:00 +1°C° 0 mm 9 mps 752 mmHg 34%
03:00 +1°C° 0 mm 9 mps 752 mmHg 34%
04:00 0°C° 0 mm 9 mps 751 mmHg 33%
05:00 0°C° 0 mm 9 mps 751 mmHg 34%
06:00 -1°C° 0 mm 9 mps 751 mmHg 34%
07:00 -2°C° 0 mm 10 mps 751 mmHg 34%
08:00 0°C° 0 mm 10 mps 751 mmHg 30%
09:00 +2°C° 0 mm 11 mps 751 mmHg 25%
10:00 +4°C° 0 mm 11 mps 751 mmHg 21%
11:00 +5°C° 0 mm 12 mps 751 mmHg 18%
12:00 +8°C° 0 mm 12 mps 750 mmHg 15%
13:00 +9°C° 0 mm 12 mps 750 mmHg 12%
14:00 +11°C° 0 mm 11 mps 749 mmHg 11%
15:00 +11°C° 0 mm 11 mps 749 mmHg 11%
16:00 +11°C° 0 mm 11 mps 748 mmHg 10%
17:00 +8°C° 0 mm 11 mps 748 mmHg 11%
18:00 +7°C° 0 mm 10 mps 748 mmHg 12%
19:00 +5°C° 0 mm 10 mps 748 mmHg 13%
20:00 +5°C° 0 mm 10 mps 748 mmHg 14%
21:00 +3°C° 0 mm 10 mps 748 mmHg 15%
22:00 +3°C° 0 mm 10 mps 748 mmHg 16%
23:00 +2°C° 0 mm 9 mps 748 mmHg 19%

31 October, Saturday

Time Temperature Precipitation Wind Pressure Humidity
00:00 +2°C° 0 mm 9 mps 748 mmHg 21%
01:00 +2°C° 0 mm 9 mps 748 mmHg 24%
02:00 +1°C° 0 mm 9 mps 747 mmHg 26%
03:00 +1°C° 0 mm 9 mps 747 mmHg 28%
04:00 0°C° 0 mm 8 mps 747 mmHg 30%
05:00 0°C° 0 mm 8 mps 747 mmHg 31%
06:00 0°C° 0 mm 8 mps 747 mmHg 32%
07:00 0°C° 0 mm 8 mps 747 mmHg 33%
08:00 +1°C° 0 mm 9 mps 747 mmHg 29%
09:00 +3°C° 0 mm 9 mps 747 mmHg 25%
10:00 +6°C° 0 mm 9 mps 747 mmHg 22%
Show more

We Need Your Consent

Meteoprog and our Service Providers may store and access personal data such as cookies, device identifiers or other similar technologies on your device and process such data to personalise content and ads, as well as provide social media features and to analyse the traffic.

  • Store and/or access information on your device

    Cookies, device identifiers or other information can be stored or accessed on your device for the purposes indicated above.

  • Personalised ads and content, ad and content measurement, audience insights, and products development

    Ads and content can be personalised based on a profile. More data can be added to better personalise ads and content. Ad and content performance can be measured. Insights about the audience who saw the ads and content can be derived. Such data can be used to develop or improve user’s experience, systems and software.

By clicking ‘I Agree’ you will allow the use of indicated cookies, device identifiers, web beacons or other similar technologies. Your settings can be changed in the browser on your device.

For certain purposes, legitimate interests may be relied on, rather than consent. You can read more about this in our Privacy and Cookie Policy.